Sneeuw/IJzel/Bevriezing van: 15-12-2017 01:00 tot: 08:59 waarschuwing voor: Sneeuw/IJzel/Bevriezing niveau: Geel info button

Weerstation Grootegast  Weerstation Grootegast


waarschuwing voor winterse neerslag Meer informatie rain snow radar


15 daagse weersverwachting Bad Ischl (AT)

  • Overzicht
  • Per uur
  • 15 dagen
  • Extra
  • Vergelijk
  • Kaarten
  • Dagkaart
  • Meer »
  • Info
  • Statistieken
  • Directe link
    Temp 6h Neerslag Wind  
 07:49     16:14    Daglengte: 8:25 Vandaag
07:00
4.6 mm
2
13:00
4.5 mm
2
19:00
 
2
 07:50     16:14    Daglengte: 8:24 Morgen
01:00
-1°
5.5 mm
3
warningclass
07:00
-1°
 
3
13:00
 
2
19:00
-0°
3.0 mm
1
warningclass
 07:51     16:14    Daglengte: 8:23 Zondag 17 Dec
01:00
-2°
16.9 mm
1
warningclass
07:00
-2°
13.3 mm
2
warningclass
13:00
55.4 mm
6
warningclass
19:00
-1°
53.9 mm
7
warningclass
 07:51     16:14    Daglengte: 8:23 Maandag 18 Dec
01:00
-2°
80.4 mm
5
warningclass
Locatie info
Region: Oberösterreich
Latitude: 47.7120°N
Longitude: 13.6257°E
470 masl
Postcode: 4820
Temp/Neerslag /Baro Onweer/DauwpuntSneeuw
    Temp Baro 1h Neerslag Dauwpunt Wind UV BewolkingSneeuw  
 07:49     16:14    Daglengte: 8:25 Vandaag
04:00
Voelt als: -0.4°
996.4 hPa 0.7 mm
21%
-0.2°
2
Windvlaag: 0.6 m/s
19%21 cm
05:00
Voelt als: -0.3°
998.0 hPa 1.4 mm
21%
0.7°
2
Windvlaag: 4.7 m/s
19%21 cm
06:00
Voelt als: -1.4°
998.4 hPa 1.6 mm
21%
0.1°
2
Windvlaag: 5.9 m/s
19%21 cm warningclass
07:00
Voelt als: -0.3°
998.5 hPa 1.0 mm
21%
1.1°
2
Windvlaag: 5.5 m/s
19%21 cm
08:00
Voelt als: -0.4°
999.1 hPa 0.9 mm
21%
0.6°
3
Windvlaag: 2.7 m/s
19%21 cm
09:00
Voelt als: -0.7°
999.8 hPa 0.8 mm
21%
-0.1°
3
Windvlaag: 1.8 m/s
19%21 cm
10:00
Voelt als: 0.2°
1000.1 hPa 0.9 mm
21%
0.6°
3
Windvlaag: 0.5 m/s
19%21 cm
11:00
Voelt als: 0.7°
1000.1 hPa 1.0 mm
21%
1.4°
3
Windvlaag: 0.3 m/s
19%20 cm
12:00
Voelt als: 1.2°
1000.0 hPa 0.8 mm
21%
1.6°
2
Windvlaag: 1.3 m/s
19%20 cm
13:00
Voelt als: 1.6°
1000.1 hPa
21%
1.2°
2
Windvlaag: 0.8 m/s
19%20 cm
14:00
Voelt als: 2.7°
1000.2 hPa
21%
1.9°
1
Windvlaag: 1.2 m/s
19%19 cm
15:00
Voelt als: 1.9°
1000.1 hPa
21%
0.5°
1
Windvlaag: 1.1 m/s
19%19 cm
16:00
Voelt als: -0.4°
1000.2 hPa
21%
-0.5°
1
Windvlaag: 0.5 m/s
19%19 cm
17:00
Voelt als: 0.7°
1000.7 hPa
21%
0.0°
2
Windvlaag: 0.2 m/s
19%19 cm
18:00
Voelt als: 0.4°
1000.6 hPa
21%
-0.3°
2
Windvlaag: -0.4 m/s
19%19 cm
19:00
Voelt als: -0.2°
1001.0 hPa   -0.3°
2
Windvlaag: 0.3 m/s
19%19 cm
20:00
-0°
Voelt als: -2.3°
1001.2 hPa 5.5 mm
21%
-2.6°
2
Windvlaag: 0.6 m/s
19%19 cm warningclass
21:00
-0°
Voelt als: -3.3°
1001.6 hPa
21%
-3.5°
3
Windvlaag: 1.5 m/s
19%19 cm
22:00
-0°
Voelt als: -4.0°
1001.9 hPa
21%
-3.5°
3
Windvlaag: 0.2 m/s
19%19 cm
23:00
-0°
Voelt als: -4.0°
1002.2 hPa
21%
-3.8°
3
Windvlaag: -0.7 m/s
19%19 cm
 07:50     16:14    Daglengte: 8:24 Morgen
00:00
-1°
Voelt als: -4.5°
1002.5 hPa
21%
-3.9°
3
Windvlaag: -0.5 m/s
18%19 cm
01:00
-1°
Voelt als: -4.5°
1002.8 hPa
21%
-4.1°
3
Windvlaag: -0.1 m/s
19%19 cm
02:00
-1°
Voelt als: -4.1°
1003.2 hPa
21%
-4.1°
3
Windvlaag: 0.7 m/s
19%19 cm
03:00
-1°
Voelt als: -4.2°
1003.4 hPa
21%
-4.4°
3
Windvlaag: 1.3 m/s
19%19 cm
04:00
-1°
Voelt als: -4.3°
1003.6 hPa
21%
-4.6°
2
Windvlaag: 2.4 m/s
19%19 cm
05:00
-1°
Voelt als: -4.0°
1003.9 hPa
21%
-4.7°
2
Windvlaag: 2.4 m/s
18%19 cm
06:00
-2°
Voelt als: -4.3°
1004.2 hPa
21%
-4.9°
2
Windvlaag: 2.7 m/s
18%19 cm
07:00
-1°
Voelt als: -4.3°
1005.0 hPa
21%
-4.4°
3
Windvlaag: 3.3 m/s
19%19 cm
08:00
-1°
Voelt als: -4.2°
1005.8 hPa
21%
-4.4°
3
Windvlaag: 3.1 m/s
19%19 cm
09:00
-0°
Voelt als: -3.3°
1006.5 hPa
21%
-2.8°
3
Windvlaag: 2.5 m/s
18%19 cm
10:00
Voelt als: -1.7°
1007.2 hPa
21%
-1.6°
2
Windvlaag: 2.5 m/s
18%19 cm
11:00
Voelt als: -0.7°
1007.5 hPa
21%
-0.9°
2
Windvlaag: 2.9 m/s
17%19 cm
12:00
Voelt als: -0.2°
1007.6 hPa
21%
-0.3°
2
Windvlaag: 3 m/s
18%19 cm
13:00
Voelt als: 0.1°
1008.0 hPa
21%
-0.2°
2
Windvlaag: 2.4 m/s
18%18 cm
14:00
Voelt als: -0.2°
1008.6 hPa
21%
-0.4°
2
Windvlaag: 1.9 m/s
19%18 cm
15:00
Voelt als: -0.6°
1009.7 hPa 0.9 mm
21%
-0.6°
1
Windvlaag: 0.9 m/s
19%18 cm warningclass
16:00
Voelt als: -0.7°
1010.7 hPa 0.9 mm
21%
-0.8°
1
Windvlaag: 1.4 m/s
18%18 cm warningclass
17:00
-0°
Voelt als: -1.6°
1011.6 hPa
21%
-1.5°
1
Windvlaag: 0.3 m/s
18%18 cm
18:00
-0°
Voelt als: -2.0°
1012.6 hPa 1.2 mm
21%
-1.7°
2
Windvlaag: 0.3 m/s
18%19 cm warningclass
19:00
-0°
Voelt als: -1.9°
1013.4 hPa   -1.4°
1
Windvlaag: 1.3 m/s
19%19 cm
20:00
-0°
Voelt als: -1.8°
1014.3 hPa 7.3 mm
21%
-1.0°
1
Windvlaag: 1.2 m/s
19%19 cm warningclass
21:00
-0°
Voelt als: -4.5°
1015.3 hPa 1.5 mm
21%
-1.3°
4
Windvlaag: 1.3 m/s
19%19 cm warningclass
22:00
-1°
Voelt als: -3.4°
1017.1 hPa 1.9 mm
100%
-1.9°
2
Windvlaag: -0.5 m/s
80%20 cm warningclass
23:00
-2°
Voelt als: -3.4°
1018.2 hPa 2.1 mm
100%
-2.1°
1
Windvlaag: -1.1 m/s
80%20 cm warningclass
 07:51     16:14    Daglengte: 8:23 Zondag 17 Dec
00:00
-2°
Voelt als: -3.5°
1019.0 hPa 2.0 mm
100%
-2.6°
1
Windvlaag: -0.3 m/s
80%20 cm warningclass
01:00
-2°
Voelt als: -4.1°
1019.2 hPa 1.9 mm
100%
-2.9°
1
Windvlaag: -0.5 m/s
80%20 cm warningclass
02:00
-2°
Voelt als: -4.5°
1019.5 hPa 2.1 mm
100%
-3.0°
2
Windvlaag: 0.6 m/s
80%21 cm warningclass
03:00
-2°
Voelt als: -5.0°
1019.7 hPa 2.2 mm
100%
-3.5°
2
Windvlaag: 0.9 m/s
80%21 cm warningclass
04:00
-2°
Voelt als: -4.3°
1019.9 hPa 2.1 mm
100%
-2.9°
2
Windvlaag: 1.1 m/s
80%21 cm warningclass
05:00
-2°
Voelt als: -4.7°
1020.3 hPa 2.2 mm
100%
-2.8°
2
Windvlaag: 1.3 m/s
80%21 cm warningclass
06:00
-2°
Voelt als: -4.7°
1020.6 hPa 2.4 mm
100%
-2.9°
2
Windvlaag: 2.2 m/s
80%22 cm warningclass
07:00
-2°
Voelt als: -4.9°
1021.0 hPa 2.4 mm
100%
-2.8°
2
Windvlaag: 2.6 m/s
77%22 cm warningclass
08:00
-1°
Voelt als: -5.3°
1019.9 hPa 7.1 mm
100%
-1.7°
4
Windvlaag: 8.4 m/s
0%22 cm warningclass
09:00
-1°
Voelt als: -4.7°
1020.5 hPa 8.7 mm
100%
-1.3°
4
Windvlaag: 7.1 m/s
0%24 cm warningclass
10:00
-0°
Voelt als: -5.5°
1021.6 hPa 9.4 mm
100%
-0.6°
6
Windvlaag: 12.2 m/s
0%24 cm warningclass
11:00
Voelt als: -5.6°
1022.1 hPa 9.7 mm
100%
-0.7°
7
Windvlaag: 12.8 m/s
0%24 cm warningclass
12:00
Voelt als: -5.2°
1022.5 hPa 10.1 mm
100%
-0.5°
6
Windvlaag: 11.9 m/s
0%25 cm warningclass
13:00
Voelt als: -5.2°
1022.9 hPa 10.4 mm
100%
-0.7°
6
Windvlaag: 10.8 m/s
0%25 cm warningclass
14:00
Voelt als: -5.3°
1023.4 hPa 10.5 mm
100%
-0.8°
6
Windvlaag: 10.7 m/s
0%25 cm warningclass
15:00
-0°
Voelt als: -6.0°
1024.2 hPa 10.7 mm
100%
-1.2°
6
Windvlaag: 11 m/s
0%25 cm warningclass
16:00
-3°
Voelt als: -7.6°
1025.0 hPa 10.8 mm
100%
-3.8°
4
Windvlaag: 8.5 m/s
0%25 cm warningclass
17:00
-1°
Voelt als: -5.9°
1025.5 hPa 10.8 mm
100%
-1.5°
5
Windvlaag: 8.8 m/s
0%25 cm warningclass
18:00
-1°
Voelt als: -5.7°
1026.2 hPa 11.1 mm
100%
-1.4°
5
Windvlaag: 8.8 m/s
0%26 cm warningclass
19:00
-1°
Voelt als: -6.7°
1027.1 hPa   -1.3°
7
Windvlaag: 11.2 m/s
0%26 cm
20:00
-1°
Voelt als: -6.6°
1028.2 hPa 12.9 mm
100%
-1.4°
7
Windvlaag: 10.3 m/s
0%27 cm warningclass
21:00
-1°
Voelt als: -6.5°
1028.4 hPa 13.2 mm
100%
-1.6°
6
Windvlaag: 9.5 m/s
0%27 cm warningclass
22:00
-1°
Voelt als: -6.6°
1028.8 hPa 13.4 mm
100%
-1.9°
6
Windvlaag: 9.8 m/s
0%28 cm warningclass
23:00
-1°
Voelt als: -7.0°
1028.7 hPa 13.6 mm
100%
-2.2°
6
Windvlaag: 9.7 m/s
0%28 cm warningclass
 07:51     16:14    Daglengte: 8:23 Maandag 18 Dec
00:00
-1°
Voelt als: -7.2°
1028.9 hPa 13.7 mm
100%
-2.4°
6
Windvlaag: 10 m/s
0%28 cm warningclass
01:00
-2°
Voelt als: -8.0°
1028.3 hPa 13.7 mm
100%
-3.7°
5
Windvlaag: 10.3 m/s
0%28 cm warningclass
02:00
-3°
Voelt als: -9.1°
1027.4 hPa 13.7 mm
100%
-6.1°
5
Windvlaag: 11.1 m/s
0%28 cm warningclass
03:00
-3°
Voelt als: -9.0°
1026.6 hPa 13.7 mm
100%
-6.2°
6
Windvlaag: 11.8 m/s
0%28 cm warningclass
Temp/Neerslag /Baro Onweer/DauwpuntSneeuw
    Temp Baro Neerslag Dauwpunt Wind BewolkingSneeuw  
 07:49     16:14    Daglengte: 8:25 Vandaag
04:00
Voelt als: -0.4°
996.4 hPa 0.7 mm -0.2°
2
19%21 cm
07:00
Voelt als: -0.3°
998.5 hPa 3.9 mm 1.1°
2
19%21 cm
10:00
Voelt als: 0.2°
1000.1 hPa 2.7 mm 0.6°
3
19%21 cm
13:00
Voelt als: 1.6°
1000.1 hPa 1.8 mm 1.2°
2
19%20 cm
16:00
Voelt als: -0.4°
1000.2 hPa   -0.5°
1
19%19 cm
19:00
Voelt als: -0.2°
1001.0 hPa   -0.3°
2
19%19 cm
22:00
-0°
Voelt als: -4.0°
1001.9 hPa 5.5 mm -3.5°
3
19%19 cm warningclass
 07:50     16:14    Daglengte: 8:24 Morgen
01:00
-1°
Voelt als: -4.5°
1002.8 hPa   -4.1°
3
19%19 cm
04:00
-1°
Voelt als: -4.3°
1003.6 hPa   -4.6°
2
19%19 cm
07:00
-1°
Voelt als: -4.3°
1005.0 hPa   -4.4°
3
19%19 cm
10:00
Voelt als: -1.7°
1007.2 hPa   -1.6°
2
18%19 cm
13:00
Voelt als: 0.1°
1008.0 hPa   -0.2°
2
18%18 cm
16:00
Voelt als: -0.7°
1010.7 hPa 1.8 mm -0.8°
1
18%18 cm warningclass
19:00
-0°
Voelt als: -1.9°
1013.4 hPa 1.2 mm -1.4°
1
19%19 cm warningclass
22:00
-1°
Voelt als: -3.4°
1017.1 hPa 10.8 mm -1.9°
2
80%20 cm warningclass
 07:51     16:14    Daglengte: 8:23 Zondag 17 Dec
01:00
-2°
Voelt als: -4.1°
1019.2 hPa 6.1 mm -2.9°
1
80%20 cm warningclass
04:00
-2°
Voelt als: -4.3°
1019.9 hPa 6.4 mm -2.9°
2
80%21 cm warningclass
07:00
-2°
Voelt als: -4.9°
1021.0 hPa 7.0 mm -2.8°
2
77%22 cm warningclass
10:00
-0°
Voelt als: -5.5°
1021.6 hPa 25.2 mm -0.6°
6
0%24 cm warningclass
13:00
Voelt als: -5.2°
1022.9 hPa 30.2 mm -0.7°
6
0%25 cm warningclass
16:00
-3°
Voelt als: -7.6°
1025.0 hPa 32.0 mm -3.8°
4
0%25 cm warningclass
19:00
-1°
Voelt als: -6.7°
1027.1 hPa 22.0 mm -1.3°
7
0%26 cm warningclass
22:00
-1°
Voelt als: -6.6°
1028.8 hPa 39.5 mm -1.9°
6
0%28 cm warningclass
 07:51     16:14    Daglengte: 8:23 Maandag 18 Dec
01:00
-2°
Voelt als: -8.0°
1028.3 hPa 41.0 mm -3.7°
5
0%28 cm warningclass
04:00
-2°
Voelt als: -7.9°
1025.4 hPa 41.2 mm -4.4°
5
0%28 cm warningclass
07:00
-1°
Voelt als: -6.2°
1023.5 hPa 41.2 mm -4.6°
5
0%28 cm warningclass
10:00
-0°
Voelt als: -3.9°
1025.4 hPa 1.2 mm -1.5°
3
1% warningclass
13:00
Voelt als: 0.1°
1021.9 hPa 6.5 mm 1.4°
2
1%
16:00
Voelt als: -0.7°
1022.5 hPa 7.1 mm 2.0°
3
1%
19:00
Voelt als: -1.0°
1024.7 hPa 10.7 mm 1.6°
3
1%
22:00
Voelt als: -1.3°
1027.4 hPa 1.4 mm 1.1°
3
1%
 07:52     16:15    Daglengte: 8:23 Dinsdag 19 Dec
01:00
Voelt als: -1.7°
1029.5 hPa 2.4 mm 0.4°
2
1% warningclass
04:00
Voelt als: -1.8°
1031.1 hPa 1.5 mm 0.4°
2
1% warningclass
07:00
Voelt als: -2.0°
1032.8 hPa 2.8 mm -0.2°
2
1% warningclass
10:00
Voelt als: -1.5°
1034.1 hPa 1.2 mm 0.4°
2
1% warningclass
13:00
Voelt als: -0.7°
1033.3 hPa 2.5 mm 1.1°
2
1%
16:00
Voelt als: -1.0°
1034.0 hPa 1.1 mm 0.7°
2
1% warningclass
19:00
Voelt als: -1.4°
1036.1 hPa 3.2 mm 0.6°
2
1% warningclass
22:00
Voelt als: -1.6°
1037.4 hPa 1.9 mm 0.5°
2
1% warningclass
 07:52     16:15    Daglengte: 8:23 Woensdag 20 Dec
01:00
Voelt als: -1.8°
1037.5 hPa 3.2 mm 0.1°
2
1% warningclass
04:00
Voelt als: -1.9°
1037.3 hPa 0.4 mm -0.2°
2
1% warningclass
07:00
-1°
Voelt als: -1.8°
1037.9 hPa 1.2 mm -0.9°
1
1% warningclass
10:00
Voelt als: -0.4°
1038.0 hPa 0.2 mm 0.1°
1
1% warningclass
13:00
Voelt als: 0.2°
1036.5 hPa 0.6 mm 1.3°
1
1%
16:00
Voelt als: 0.1°
1036.2 hPa 1.0 mm 1.1°
1
1%
19:00
Voelt als: -0.2°
1037.0 hPa 2.5 mm 0.9°
2
1%
22:00
Voelt als: 0.5°
1037.1 hPa 0.9 mm 1.3°
2
1%
 07:53     16:16    Daglengte: 8:23 Donderdag 21 Dec
01:00
Voelt als: 0.8°
1035.4 hPa 1.3 mm 1.8°
2
1%
04:00
Voelt als: 1.0°
1033.4 hPa 0.9 mm 2.3°
2
1%
07:00
Voelt als: 1.6°
1032.6 hPa 2.4 mm 3.2°
2
1%
10:00
Voelt als: 2.4°
1032.5 hPa 1.4 mm 4.0°
2
1%
13:00
Voelt als: 3.1°
1030.7 hPa 2.2 mm 4.5°
2
1%
16:00
Voelt als: 3.2°
1030.0 hPa 1.1 mm 4.6°
2
1%
19:00
Voelt als: 3.1°
1029.7 hPa 3.3 mm 4.6°
2
1%
22:00
Voelt als: 3.2°
1028.8 hPa 2.2 mm 4.8°
2
1%
 07:53     16:16    Daglengte: 8:23 Vrijdag 22 Dec
01:00
Voelt als: 3.2°
1026.7 hPa 6.2 mm 5.0°
2
1%
07:00
Voelt als: 3.4°
1022.6 hPa 5.3 mm 4.8°
2
1%
13:00
Voelt als: 3.1°
1017.0 hPa 13.4 mm 4.8°
2
1%
19:00
Voelt als: 0.2°
1016.6 hPa 21.1 mm 2.8°
3
1%
 07:54     16:17    Daglengte: 8:23 Zaterdag 23 Dec
01:00
Voelt als: -2.6°
1016.3 hPa 11.8 mm 0.3°
3
1% warningclass
07:00
-1°
Voelt als: -6.1°
1016.1 hPa 10.2 mm -1.8°
4
1% warningclass
13:00
-2°
Voelt als: -6.9°
1016.1 hPa 6.2 mm -2.7°
5
1% warningclass
19:00
-3°
Voelt als: -8.2°
1018.6 hPa 6.1 mm -3.4°
5
1% warningclass
 07:54     16:18    Daglengte: 8:24 Zondag 24 Dec
01:00
-4°
Voelt als: -8.9°
1020.2 hPa 6.2 mm -4.3°
4
1% warningclass
07:00
-4°
Voelt als: -8.3°
1022.4 hPa 4.2 mm -4.1°
3
1% warningclass
13:00
-1°
Voelt als: -5.4°
1021.5 hPa 4.2 mm -2.5°
3
1% warningclass
19:00
Voelt als: -1.1°
1023.6 hPa 0.4 mm 0.1°
1
0%
 07:54     16:18    Daglengte: 8:24 Maandag 25 Dec
01:00
-0°
Voelt als: -2.3°
1024.5 hPa 0.6 mm -0.9°
2
0%
07:00
-1°
Voelt als: -3.0°
1025.7 hPa 1.3 mm -1.7°
1
0%
13:00
Voelt als: 2.3°
1025.3 hPa 0.8 mm 2.7°
1
0%
19:00
-1°
Voelt als: -1.6°
1026.8 hPa 0.4 mm -1.2°
1
0%
 07:55     16:19    Daglengte: 8:24 Dinsdag 26 Dec
01:00
-1°
Voelt als: -3.0°
1026.9 hPa 0.3 mm -1.9°
1
0%
07:00
-1°
Voelt als: -2.4°
1026.4 hPa 0.7 mm -1.5°
1
0%
13:00
Voelt als: 4.7°
1025.2 hPa 0.9 mm 4.6°
1
0%
19:00
Voelt als: -0.1°
1027.4 hPa 0.8 mm 0.1°
1
0%
 07:55     16:20    Daglengte: 8:25 Woensdag 27 Dec
01:00
-0°
Voelt als: -1.7°
1027.9 hPa 0.3 mm -0.8°
1
0%
07:00
-0°
Voelt als: -2.0°
1027.8 hPa 0.3 mm -1.3°
2
0%
13:00
Voelt als: 5.2°
1026.6 hPa 0.6 mm 4.9°
1
0%
19:00
Voelt als: -0.9°
1028.1 hPa 0.6 mm -0.9°
1
0%
 07:55     16:20    Daglengte: 8:25 Donderdag 28 Dec
01:00
-0°
Voelt als: -1.4°
1028.1 hPa 0.4 mm -1.0°
1
0%
07:00
-0°
Voelt als: -1.9°
1027.2 hPa 0.2 mm -1.6°
1
0%
13:00
Voelt als: 5.4°
1026.0 hPa 0.2 mm 5.0°
1
0%
19:00
-0°
1027.3 hPa 0.4 mm -1.4°
1
0%
 07:55     16:21    Daglengte: 8:26 Vrijdag 29 Dec
01:00
-0°
Voelt als: -1.7°
1026.9 hPa 0.6 mm -1.6°
1
0%
07:00
-1°
Voelt als: -2.1°
1025.5 hPa 0.5 mm -1.9°
1
0%
13:00
Voelt als: 4.8°
1024.0 hPa 0.7 mm 4.4°
1
0%
19:00
-0°
Voelt als: -1.0°
1024.6 hPa 0.8 mm -1.3°
1
0%
 07:55     16:22    Daglengte: 8:27 Zaterdag 30 Dec
01:00
-1°
Voelt als: -2.2°
1025.2 hPa 0.2 mm -1.7°
1
0%
  CAPE Lifted Index Hail Supercell Tornado SRH 3km CL BTM PRES CL TOP PRES Swiss DWD icon SMHI TS
 07:49     16:14    Daglengte: 8:25 Vandaag
04:00 0 J/kg -0.1 K 0 % 0 % 0 % 0 m²/s² 0 0 0.29
05:00 0 J/kg 1.9 K 0 % 0 % 0 % 0 m²/s² 0 0 2.74
06:00 0 J/kg 2.6 K 0 % 0 % 0 % 0 m²/s² 0 0 3.68
07:00 0 J/kg 2.9 K 0 % 0 % 0 % 0 m²/s² 0 0 4.1
08:00 7 J/kg 3.8 K 0 % 0 % 0 % 0 m²/s² 0 0 5.84
09:00 0 J/kg 5.3 K 0 % 0 % 0 % 0 m²/s² 0 0 9.59
10:00 0 J/kg 4.9 K 0 % 0 % 0 % 0 m²/s² 0 0 11.71
11:00 0 J/kg 4.7 K 0 % 0 % 0 % 0 m²/s² 0 0 12.68
12:00 1 J/kg 4.0 K 0 % 0 % 0 % 0 m²/s² 0 0 11.05
13:00 4 J/kg 4.3 K 0 % 0 % 0 % 0 m²/s² 0 0 9.43
14:00 9 J/kg 4.4 K 0 % 0 % 0 % 0 m²/s² 0 0 7.97
15:00 0 J/kg 4.5 K 0 % 0 % 0 % 0 m²/s² 0 0 7.62
16:00 0 J/kg 3.9 K 0 % 0 % 0 % 0 m²/s² 0 0 6.48
17:00 0 J/kg 3.7 K 0 % 0 % 0 % 0 m²/s² 0 0 5.23
18:00 0 J/kg 3.5 K 0 % 0 % 0 % 0 m²/s² 0 0 4.94
19:00 0 J/kg 3.7 K 0 % 0 % 0 % 0 m²/s² 0 0 5.95
20:00 0 J/kg 3.3 K 0 % 0 % 0 % 0 m²/s² 0 0 6.57
21:00 0 J/kg 3.3 K 0 % 0 % 0 % 0 m²/s² 0 0 7.32
22:00 0 J/kg 3.4 K 0 % 0 % 0 % 0 m²/s² 0 0 7.21
23:00 0 J/kg 3.0 K 0 % 0 % 0 % 0 m²/s² 0 0 7.35
 07:50     16:14    Daglengte: 8:24 Morgen
00:00 0 J/kg 2.5 K 0 % 0 % 0 % 0 m²/s² 0 0 6.64
01:00 0 J/kg 2.4 K 0 % 0 % 0 % 0 m²/s² 0 0 6.63
02:00 0 J/kg 2.0 K 0 % 0 % 0 % 0 m²/s² 0 0 6.71
03:00 0 J/kg 1.3 K 0 % 0 % 0 % 0 m²/s² 0 0 6.28
04:00 0 J/kg 0.9 K 0 % 0 % 0 % 0 m²/s² 0 0 4.86
05:00 0 J/kg 0.0 K 0 % 0 % 0 % 0 m²/s² 0 0 3.06
06:00 0 J/kg -0.1 K 0 % 0 % 0 % 0 m²/s² 0 0 2.09
07:00 0 J/kg -0.2 K 0 % 0 % 0 % 0 m²/s² 0 0 1.24
08:00 0 J/kg -0.1 K 0 % 0 % 0 % 0 m²/s² 0 0 1.28
09:00 0 J/kg 0.1 K 0 % 0 % 0 % 0 m²/s² 0 0 1.42
10:00 2 J/kg 0.2 K 0 % 0 % 0 % 0 m²/s² 0 0 1.19
11:00 3 J/kg 0.3 K 0 % 0 % 0 % 0 m²/s² 0 0 0.87
12:00 6 J/kg 0.6 K 0 % 0 % 0 % 0 m²/s² 0 0 1.2
13:00 6 J/kg 0.9 K 0 % 0 % 0 % 0 m²/s² 0 0 1.62
14:00 9 J/kg 1.0 K 0 % 0 % 0 % 0 m²/s² 0 0 1.87
15:00 13 J/kg 1.1 K 0 % 0 % 0 % 0 m²/s² 0 0 2.45
16:00 4 J/kg 1.3 K 0 % 0 % 0 % 0 m²/s² 0 0 3.1
17:00 1 J/kg 1.9 K 0 % 0 % 0 % 0 m²/s² 0 0 3.46
18:00 3 J/kg 2.5 K 0 % 0 % 0 % 0 m²/s² 0 0 4.39
19:00 1 J/kg 2.6 K 0 % 0 % 0 % 0 m²/s² 0 0 4.01
20:00 2 J/kg 3.1 K 0 % 0 % 0 % 0 m²/s² 0 0 4.21
21:00 0 J/kg 3.2 K 0 % 0 % 0 % 0 m²/s² 0 0 3.83
22:00 1 J/kg 3.6 K 0 % 0 % 0 % 0 m²/s² 0 0 4.29
23:00 7 J/kg 4.2 K 0 % 0 % 0 % 0 m²/s² 0 0 5.31
 07:51     16:14    Daglengte: 8:23 Zondag 17 Dec
00:00 4 J/kg 4.6 K 0 % 0 % 0 % 0 m²/s² 0 0 5.89
01:00 3 J/kg 4.3 K 0 % 0 % 0 % 0 m²/s² 0 0 5.8
02:00 0 J/kg 4.0 K 0 % 0 % 0 % 0 m²/s² 0 0 5.11
03:00 0 J/kg 4.0 K 0 % 0 % 0 % 0 m²/s² 0 0 5.14
04:00 0 J/kg 3.1 K 0 % 0 % 0 % 0 m²/s² 0 0 4.33
05:00 8 J/kg 3.1 K 0 % 0 % 0 % 0 m²/s² 0 0 4.03
06:00 0 J/kg 1.6 K 0 % 0 % 0 % 0 m²/s² 0 0 2.23
07:00 0 J/kg 1.7 K 0 % 0 % 0 % 0 m²/s² 0 0 2.48
08:00 0 J/kg 1.7 K 0 % 0 % 0 % 0 m²/s² 0 0 2.99
09:00 0 J/kg 1.1 K 0 % 0 % 0 % 0 m²/s² 0 0 1.73
10:00 32 J/kg 2.1 K 0 % 0 % 0 % 0 m²/s² 0 0 3.39
11:00 16 J/kg 2.3 K 0 % 0 % 0 % 0 m²/s² 0 0 3.35
12:00 37 J/kg 2.6 K 0 % 0 % 0 % 0 m²/s² 0 0 3.65
13:00 40 J/kg 3.6 K 0 % 0 % 0 % 0 m²/s² 0 0 4.35
14:00 29 J/kg 3.9 K 0 % 0 % 0 % 0 m²/s² 0 0 4.83
15:00 33 J/kg 5.0 K 0 % 0 % 0 % 0 m²/s² 0 0 5.99
16:00 26 J/kg 6.5 K 0 % 0 % 0 % 0 m²/s² 0 0 8.36
17:00 26 J/kg 7.4 K 0 % 0 % 0 % 0 m²/s² 0 0 9.32
18:00 18 J/kg 8.0 K 0 % 0 % 0 % 0 m²/s² 0 0 9.86
19:00 21 J/kg 9.0 K 0 % 0 % 0 % 0 m²/s² 0 0 11.31
20:00 31 J/kg 9.8 K 0 % 0 % 0 % 0 m²/s² 0 0 12.98
21:00 23 J/kg 11.4 K 0 % 0 % 0 % 0 m²/s² 0 0 15.24
22:00 9 J/kg 12.1 K 0 % 0 % 0 % 0 m²/s² 0 0 16.18
23:00 0 J/kg 12.9 K 0 % 0 % 0 % 0 m²/s² 0 0 17.22
 07:51     16:14    Daglengte: 8:23 Maandag 18 Dec
00:00 1 J/kg 13.7 K 0 % 0 % 0 % 0 m²/s² 0 0 17.81
01:00 0 J/kg 14.2 K 0 % 0 % 0 % 0 m²/s² 0 0 18.04
02:00 0 J/kg 14.3 K 0 % 0 % 0 % 0 m²/s² 0 0 17.99
03:00 0 J/kg 13.9 K 0 % 0 % 0 % 0 m²/s² 0 0 17.17
Temp Baro Wind Neerslag
  EWN Forecast EWN WRFDA DWD ICON FMI HIRLAM MET Norway GFS
 07:49     16:14    Daglengte: 8:25 Vandaag
04:00 1.7° 996.4 hPa 2.0 m/s 0.7 mm 3.8° 993.3 hPa 2.9 m/s 1.2 mm 1.7° 997.0 hPa 2.2 m/s 0.0 mm 1.1° 997.2 hPa 2.7 m/s
07:00 2.1° 998.5 hPa 2.3 m/s 3.9 mm 3.0° 996.1 hPa 5.2 m/s 5.8 mm 2.3° 998.6 hPa 1.1 m/s 0.0 mm 2.2° 1000.1 hPa 1.1 m/s
10:00 2.9° 1000.1 hPa 2.8 m/s 2.7 mm 3.1° 999.1 hPa 4.4 m/s 6.0 mm 4.0° 999.7 hPa 2.6 m/s 0.0 mm 2.6° 1001.8 hPa 0.8 m/s
13:00 3.5° 1000.1 hPa 2.0 m/s 1.8 mm 4.8° 998.9 hPa 1.7 m/s 6.0 mm 3.8° 999.7 hPa 2.1 m/s 0.0 mm 3.3° 1001.9 hPa 0.9 m/s
16:00 0.7° 1000.2 hPa 1.2 m/s 0.0 mm -1.7° 998.7 hPa 2.2 m/s 6.0 mm 3.0° 999.9 hPa 1.0 m/s 0.0 mm 1.5° 1002.9 hPa 1.2 m/s
19:00 1.5° 1001.0 hPa 1.6 m/s 0.0 mm 1.8° 999.5 hPa 4.2 m/s 4.0 mm 2.4° 1000.8 hPa 0.4 m/s 0.0 mm 0.5° 1004.7 hPa 1.5 m/s
22:00 -0.4° 1001.9 hPa 3.0 m/s 5.5 mm -2.3° 1001.0 hPa 5.5 m/s 5.9 mm 2.8° 1001.7 hPa 3.0 m/s 0.0 mm 0.2° 1005.7 hPa 1.4 m/s
 07:50     16:14    Daglengte: 8:24 Morgen
01:00 -0.8° 1002.8 hPa 3.0 m/s 0.0 mm -2.6° 1000.8 hPa 5.6 m/s 5.9 mm 2.2° 1002.9 hPa 2.9 m/s 0.0 mm 0.4° 1006.5 hPa 1.4 m/s
04:00 -1.1° 1003.6 hPa 2.4 m/s 0.0 mm -2.0° 1000.4 hPa 5.2 m/s 5.9 mm 2.2° 1003.9 hPa 2.3 m/s 0.0 mm -0.4° 1006.4 hPa 1.5 m/s
07:00 -1.0° 1005.0 hPa 2.6 m/s 0.0 mm -1.4° 1002.5 hPa 4.2 m/s 6.0 mm 2.2° 1005.0 hPa 2.8 m/s 0.0 mm -1.7° 1007.7 hPa 1.6 m/s
10:00 0.8° 1007.2 hPa 2.2 m/s 0.0 mm 1.0° 1005.6 hPa 2.6 m/s 6.1 mm 2.4° 1007.0 hPa 2.5 m/s 0.0 mm 0.8° 1009.5 hPa 1.4 m/s
13:00 1.8° 1008.0 hPa 1.6 m/s 0.0 mm 1.8° 1007.8 hPa 4.1 m/s 6.7 mm 3.0° 1007.3 hPa 1.3 m/s 0.0 mm 1.9° 1009.9 hPa 1.7 m/s
16:00 0.3° 1010.7 hPa 1.1 m/s 1.8 mm -0.1° 1010.6 hPa 2.9 m/s 6.9 mm 2.3° 1009.8 hPa 0.9 m/s 0.0 mm 1.0° 1012.1 hPa 1.8 m/s
19:00 -0.5° 1013.4 hPa 1.3 m/s 1.2 mm -0.5° 1013.3 hPa 3.3 m/s 5.3 mm 1.0° 1012.7 hPa 1.0 m/s 0.0 mm 0.4° 1015.6 hPa 2.0 m/s
22:00 -1.3° 1017.1 hPa 1.6 m/s 10.8 mm -0.6° 1016.1 hPa 4.3 m/s 10.8 mm 0.0° 1018.2 hPa 2.2 m/s
 07:51     16:14    Daglengte: 8:23 Zondag 17 Dec
01:00 -2.1° 1019.2 hPa 1.5 m/s 6.1 mm -0.7° 1016.8 hPa 3.3 m/s 14.5 mm -0.5° 1019.8 hPa 2.1 m/s
04:00 -2.1° 1019.9 hPa 1.6 m/s 6.4 mm -0.7° 1017.3 hPa 4.3 m/s 15.7 mm -0.9° 1020.8 hPa 2.5 m/s
07:00 -2.0° 1021.0 hPa 2.1 m/s 7.0 mm -0.7° 1020.0 hPa 5.1 m/s 18.8 mm -1.2° 1022.8 hPa 2.6 m/s
10:00 -0.0° 1021.6 hPa 5.9 m/s 25.2 mm -0.0° 1021.6 hPa 5.9 m/s 25.2 mm -0.7° 1024.3 hPa 3.0 m/s
13:00 0.4° 1022.9 hPa 6.4 m/s 30.2 mm 0.4° 1022.9 hPa 6.4 m/s 30.2 mm -0.3° 1024.7 hPa 3.3 m/s
16:00 -2.6° 1025.0 hPa 4.1 m/s 32.0 mm -2.6° 1025.0 hPa 4.1 m/s 32.0 mm -0.9° 1026.4 hPa 2.8 m/s
19:00 -0.5° 1027.1 hPa 7.3 m/s 22.0 mm -0.5° 1027.1 hPa 7.3 m/s 22.0 mm -1.4° 1028.7 hPa 2.6 m/s
22:00 -1.0° 1028.8 hPa 5.7 m/s 39.5 mm -1.0° 1028.8 hPa 5.7 m/s 39.5 mm -1.7° 1030.4 hPa 2.3 m/s
 07:51     16:14    Daglengte: 8:23 Maandag 18 Dec
01:00 -2.2° 1028.3 hPa 5.4 m/s 41.0 mm -2.2° 1028.3 hPa 5.4 m/s 41.0 mm -2.2° 1030.8 hPa 2.1 m/s
04:00 -2.3° 1025.4 hPa 5.2 m/s 41.2 mm -2.3° 1025.4 hPa 5.2 m/s 41.2 mm -2.8° 1030.2 hPa 2.1 m/s
07:00 -0.9° 1023.5 hPa 5.3 m/s 41.2 mm -0.9° 1023.5 hPa 5.3 m/s 41.2 mm -3.1° 1029.0 hPa 2.4 m/s
10:00 -0.4° 1025.4 hPa 2.9 m/s 1.2 mm -0.4° 1025.4 hPa 2.9 m/s 1.2 mm
13:00 1.7° 1021.9 hPa 1.5 m/s 6.5 mm 1.7° 1021.9 hPa 1.5 m/s 6.5 mm
16:00 2.5° 1022.5 hPa 3.2 m/s 7.1 mm 2.5° 1022.5 hPa 3.2 m/s 7.1 mm
19:00 2.1° 1024.7 hPa 3.0 m/s 10.7 mm 2.1° 1024.7 hPa 3.0 m/s 10.7 mm
22:00 1.5° 1027.4 hPa 2.6 m/s 1.4 mm 1.5° 1027.4 hPa 2.6 m/s 1.4 mm
 07:52     16:15    Daglengte: 8:23 Dinsdag 19 Dec
01:00 1.0° 1029.5 hPa 2.4 m/s 2.4 mm 1.0° 1029.5 hPa 2.4 m/s 2.4 mm
04:00 0.8° 1031.1 hPa 2.2 m/s 1.5 mm 0.8° 1031.1 hPa 2.2 m/s 1.5 mm
07:00 0.4° 1032.8 hPa 2.1 m/s 2.8 mm 0.4° 1032.8 hPa 2.1 m/s 2.8 mm
10:00 0.8° 1034.1 hPa 2.0 m/s 1.2 mm 0.8° 1034.1 hPa 2.0 m/s 1.2 mm
13:00 1.5° 1033.3 hPa 2.0 m/s 2.5 mm 1.5° 1033.3 hPa 2.0 m/s 2.5 mm
16:00 1.2° 1034.0 hPa 1.9 m/s 1.1 mm 1.2° 1034.0 hPa 1.9 m/s 1.1 mm
19:00 0.9° 1036.1 hPa 2.0 m/s 3.2 mm 0.9° 1036.1 hPa 2.0 m/s 3.2 mm
22:00 0.8° 1037.4 hPa 2.0 m/s 1.9 mm 0.8° 1037.4 hPa 2.0 m/s 1.9 mm
 07:52     16:15    Daglengte: 8:23 Woensdag 20 Dec
01:00 0.4° 1037.5 hPa 1.8 m/s 3.2 mm 0.4° 1037.5 hPa 1.8 m/s 3.2 mm
04:00 0.1° 1037.3 hPa 1.6 m/s 0.4 mm 0.1° 1037.3 hPa 1.6 m/s 0.4 mm
07:00 -0.6° 1037.9 hPa 1.1 m/s 1.2 mm -0.6° 1037.9 hPa 1.1 m/s 1.2 mm
10:00 0.5° 1038.0 hPa 1.1 m/s 0.2 mm 0.5° 1038.0 hPa 1.1 m/s 0.2 mm
13:00 1.7° 1036.5 hPa 1.5 m/s 0.6 mm 1.7° 1036.5 hPa 1.5 m/s 0.6 mm
16:00 1.4° 1036.2 hPa 1.4 m/s 1.0 mm 1.4° 1036.2 hPa 1.4 m/s 1.0 mm
19:00 1.4° 1037.0 hPa 1.5 m/s 2.5 mm 1.4° 1036.9 hPa 1.5 m/s 2.5 mm
22:00 2.0° 1037.1 hPa 1.5 m/s 0.9 mm 2.0° 1037.1 hPa 1.5 m/s 0.9 mm
 07:53     16:16    Daglengte: 8:23 Donderdag 21 Dec
01:00 2.7° 1035.4 hPa 1.9 m/s 1.3 mm 2.7° 1035.4 hPa 1.9 m/s 1.3 mm
04:00 3.2° 1033.4 hPa 2.2 m/s 0.9 mm 3.2° 1033.4 hPa 2.2 m/s 0.9 mm
07:00 3.7° 1032.6 hPa 2.2 m/s 2.4 mm 3.7° 1032.6 hPa 2.2 m/s 2.4 mm
10:00 4.0° 1032.5 hPa 1.9 m/s 1.4 mm 4.0° 1032.5 hPa 1.9 m/s 1.4 mm
13:00 4.5° 1030.7 hPa 1.8 m/s 2.2 mm 4.5° 1030.7 hPa 1.8 m/s 2.2 mm
16:00 4.6° 1030.0 hPa 1.7 m/s 1.1 mm 4.6° 1030.0 hPa 1.7 m/s 1.1 mm
19:00 4.6° 1029.7 hPa 1.8 m/s 3.3 mm 4.6° 1029.7 hPa 1.8 m/s 3.3 mm
22:00 4.8° 1028.8 hPa 1.9 m/s 2.2 mm 4.8° 1028.8 hPa 1.9 m/s 2.2 mm
 07:53     16:16    Daglengte: 8:23 Vrijdag 22 Dec
01:00 5.0° 1026.7 hPa 2.1 m/s 4.0 mm 5.0° 1026.7 hPa 2.1 m/s 3.9 mm
07:00 4.8° 1022.6 hPa 1.8 m/s 4.7 mm 4.8° 1022.6 hPa 1.8 m/s 4.7 mm
13:00 4.8° 1017.0 hPa 2.1 m/s 8.6 mm 4.8° 1017.0 hPa 2.1 m/s 8.6 mm
19:00 3.3° 1016.6 hPa 3.4 m/s 15.3 mm 3.3° 1016.6 hPa 3.4 m/s 15.3 mm
 07:54     16:17    Daglengte: 8:23 Zaterdag 23 Dec
01:00 0.7° 1016.3 hPa 3.0 m/s 7.6 mm 0.7° 1016.3 hPa 3.0 m/s 7.6 mm
07:00 -1.2° 1016.1 hPa 4.4 m/s 6.2 mm -1.2° 1016.1 hPa 4.4 m/s 6.2 mm
13:00 -1.7° 1016.1 hPa 4.9 m/s 4.1 mm -1.7° 1016.1 hPa 4.9 m/s 4.1 mm
19:00 -2.8° 1018.6 hPa 4.6 m/s 4.0 mm -2.8° 1018.6 hPa 4.6 m/s 4.0 mm
 07:54     16:18    Daglengte: 8:24 Zondag 24 Dec
01:00 -3.8° 1020.2 hPa 3.9 m/s 4.0 mm -3.8° 1020.2 hPa 3.9 m/s 4.0 mm
07:00 -3.6° 1022.4 hPa 3.5 m/s 2.9 mm -3.6° 1022.4 hPa 3.5 m/s 2.9 mm
13:00 -1.4° 1021.5 hPa 3.2 m/s 2.5 mm -1.4° 1021.5 hPa 3.2 m/s 2.5 mm
19:00 0.4° 1023.6 hPa 1.4 m/s 0.4 mm
 07:54     16:18    Daglengte: 8:24 Maandag 25 Dec
01:00 -0.3° 1024.5 hPa 1.6 m/s 0.6 mm
07:00 -1.2° 1025.7 hPa 1.4 m/s 1.3 mm
13:00 3.2° 1025.3 hPa 1.2 m/s 0.8 mm
19:00 -0.6° 1026.8 hPa 1.0 m/s 0.4 mm
 07:55     16:19    Daglengte: 8:24 Dinsdag 26 Dec
01:00 -1.2° 1026.9 hPa 1.4 m/s 0.3 mm
07:00 -0.7° 1026.4 hPa 1.4 m/s 0.7 mm
13:00 4.9° 1025.2 hPa 1.0 m/s 0.9 mm
19:00 0.8° 1027.4 hPa 1.1 m/s 0.8 mm
 07:55     16:20    Daglengte: 8:25 Woensdag 27 Dec
01:00 -0.1° 1027.9 hPa 1.4 m/s 0.3 mm
07:00 -0.2° 1027.8 hPa 1.5 m/s 0.3 mm
13:00 5.3° 1026.6 hPa 0.9 m/s 0.6 mm
19:00 0.3° 1028.1 hPa 1.2 m/s 0.6 mm
 07:55     16:20    Daglengte: 8:25 Donderdag 28 Dec
01:00 -0.0° 1028.1 hPa 1.3 m/s 0.4 mm
07:00 -0.5° 1027.2 hPa 1.3 m/s 0.2 mm
13:00 5.4° 1026.0 hPa 0.8 m/s 0.2 mm
19:00 -0.4° 1027.3 hPa 0.6 m/s 0.4 mm
 07:55     16:21    Daglengte: 8:26 Vrijdag 29 Dec
01:00 -0.5° 1026.9 hPa 1.2 m/s 0.6 mm
07:00 -0.6° 1025.5 hPa 1.3 m/s 0.5 mm
13:00 4.8° 1024.0 hPa 0.6 m/s 0.7 mm
19:00 -0.3° 1024.6 hPa 0.9 m/s 0.8 mm
 07:55     16:22    Daglengte: 8:27 Zaterdag 30 Dec
01:00 -0.6° 1025.2 hPa 1.4 m/s 0.2 mm
FMI Hirlam - 7.5 km EWN WRFDA - 12 km DWD ICON - 7 km GFS - 25 km Basiskaart






























































Updatetijd (Europe/Amsterdam) Resolutie Lengte Stap
FMI Hirlam 03:15, 09:15, 15:15, 21:15 7.5 km 49h 1h
EWN WRFDA 02:00, 08:00, 14:00, 20:00 12 km 73h 1h
DWD ICON 23:45, 05:45, 11:45, 17:45 7 km 75h 1h
GFS 02:15, 08:15, 14:15, 20:15 25 km 237h 3h
30+ mm
25-30 mm
20-25 mm
15-20 mm
10-15 mm
6-10 mm
4-6 mm
2-4 mm
1-2 mm
0.5-1 mm
0.2-0.5 mm
0.1-0.2 mm
30+ mm
25-30 mm
20-25 mm
15-20 mm
10-15 mm
6-10 mm
4-6 mm
2-4 mm
1-2 mm
0.5-1 mm
0.2-0.5 mm
0.1-0.2 mm
Sneeuwval
Natte sneeuw
Hagel
Vorst
30+ mm
25-30 mm
20-25 mm
15-20 mm
10-15 mm
6-10 mm
4-6 mm
2-4 mm
1-2 mm
0.5-1 mm
0.2-0.5 mm
0.1-0.2 mm
Sneeuwval
Natte sneeuw
Hagel
Vorst
Onweer
50 mm
40 mm
30 mm
26 mm
22 mm
18 mm
14 mm
10 mm
9 mm
8 mm
7 mm
6 mm
5 mm
4.5 mm
4 mm
3.5 mm
3 mm
2.5 mm
2 mm
1.5 mm
1 mm
0.8 mm
0.6 mm
0.4 mm
0.2 mm
0.05 mm
35°
30°
25°
20°
15°
10°
-5°
-10°
-15°
-20°
-25°
-30°
-35°
33> m/s
29 m/s
25 m/s
21 m/s
17 m/s
14 m/s
11 m/s
8 m/s
5 m/s
3 m/s
0 m/s
2600 J/kg
2400 J/kg
2200 J/kg
2000 J/kg
1800 J/kg
1600 J/kg
1400 J/kg
1200 J/kg
1000 J/kg
800 J/kg
600 J/kg
400 J/kg
200 J/kg
70 dBZ
65 dBZ
60 dBZ
55 dBZ
50 dBZ
45 dBZ
40 dBZ
35 dBZ
30 dBZ
25 dBZ
20 dBZ
15 dBZ
10 dBZ
5 dBZ
-1 K
-2 K
-3 K
-4 K
-5 K
-6 K
-7 K
-8 K
-9 K
950 m²/s²
900 m²/s²
850 m²/s²
800 m²/s²
750 m²/s²
700 m²/s²
650 m²/s²
600 m²/s²
550 m²/s²
500 m²/s²
450 m²/s²
400 m²/s²
350 m²/s²
300 m²/s²
250 m²/s²
200 m²/s²
150 m²/s²
100 m²/s²
46 m/s
44 m/s
42 m/s
40 m/s
38 m/s
36 m/s
34 m/s
32 m/s
30 m/s
28 m/s
26 m/s
24 m/s
22 m/s
20 m/s
16 m/s
12 m/s
8 m/s
4 m/s
30 m/s
28 m/s
26 m/s
24 m/s
22 m/s
20 m/s
18 m/s
16 m/s
14 m/s
12 m/s
10 m/s
8 m/s
6 m/s
4 m/s
2 m/s
3.0
2.8
2.6
2.4
2.2
2.0
1.8
1.6
1.4
1.2
1.0
0.8
0.6
0.4
0.2
15
14
13
12
11
10
9
8
7
6
5
4
3
2
1
90%
80%
70%
60%
50%
40%
30%
20%
10%
42
40
38
36
34
32
30
28
26
24
22
20
18
16
14
12
90+ cm
80-90 cm
70-80 cm
60-70 cm
50-60 cm
40-50 cm
30-40 cm
20-30 cm
10-20 cm
1-10 cm
Sneeuwval
Natte sneeuw
Regen
>120 mm
115 mm
110 mm
105 mm
100 mm
95 mm
90 mm
85 mm
80 mm
75 mm
70 mm
65 mm
60 mm
55 mm
50 mm
45 mm
45 mm
40 mm
35 mm
30 mm
25 mm
20 mm
15 mm
10 mm
5 mm
0.1 mm
960 hPa
880 hPa
800 hPa
720 hPa
640 hPa
560 hPa
584 gpdm
568 gpdm
552 gpdm